Location: Newark
(47.7625°N, 12.7492°E)
Time: 01:43:15
(UTC+00:00)

OTV 5 (USA 277) - Visible Passes

Search period start: 18 October 2019 00:00
Search period end: 28 October 2019 00:00
Orbit: 310 x 324 km, 54.5° (Epoch: 08 October)

Date Brightness Start Highest point End Pass type
(mag) Time Alt. Az. Time Alt. Az. Time Alt. Az.
18 Oct ? 03:05:07 17° ENE 03:05:07 17° ENE 03:05:59 10° E visible
18 Oct ? 04:36:01 17° W 04:37:47 37° SW 04:40:22 10° SSE visible
19 Oct ? 03:19:36 23° ESE 03:19:36 23° ESE 03:20:50 10° ESE visible
19 Oct ? 04:50:31 11° W 04:52:10 16° SW 04:53:59 10° S visible
20 Oct ? 03:34:13 22° SE 03:34:13 22° SE 03:35:23 10° SE visible
21 Oct ? 03:48:58 13° S 03:48:58 13° S 03:49:24 10° SSE visible
